Weather History for Beaufort MCAS, SC

Change the Weather History Date:

Monday, October 29, 2012

  Actual Average Record
Temperature  
Mean Temperature 56 °F -  
Max Temperature 64 °F 72 °F 87 °F (1940)
Min Temperature 48 °F 53 °F 32 °F (1957)
Degree Days  
Heating Degree Days 9    
Growing Degree Days 6 (Base 50)    
Moisture  
Dew Point 36 °F    
Average Humidity 48    
Maximum Humidity 69    
Minimum Humidity 33    
Precipitation  
Precipitation 0.00 in - - ()
Sea Level Pressure  
Sea Level Pressure 29.66 in    
Wind  
Wind Speed 13 mph (NW)    
Max Wind Speed 21 mph    
Max Gust Speed 34 mph    
Visibility 10 miles    
Events      
Averages and records for this station are not official NWS values.
T = Trace of Precipitation, MM = Missing Value Source: NWS Daily Summary

Daily Weather History Graph

Daily Weather History Graph

Search for Another Location

Airport:

Trip Planner

Search our weather history database for the weather conditions in past years. The results will help you decide how hot, cold, wet, or windy it might be!

Date:

Astronomy

Oct. 29, 2012 Rise Set
Actual Time 7:38 AM EDT 6:34 PM EDT
Civil Twilight 7:12 AM EDT 6:59 PM EDT
Nautical Twilight 6:43 AM EDT 7:28 PM EDT
Astronomical Twilight 6:15 AM EDT 7:57 PM EDT
Moon 6:28 PM EDT 7:25 AM EDT
Length of Visible Light 11h 47m
Length of Day
10h 56m
Full, 100% of the Moon is Illuminated
Oct 29
Full
Oct 29
Full
Nov 6
Last Quarter
Nov 13
New
Nov 20
First Quarter

Hourly Weather History & Observations

Time (EDT) Temp. Dew Point Humidity Pressure Visibility Wind Dir Wind Speed Gust Speed Precip Events Conditions
12:56 AM 59.0 °F 46.9 °F 64% 29.68 in 10.0 mi NW 11.5 mph 21.9 mph N/A   Overcast
1:56 AM 57.0 °F 46.0 °F 67% 29.67 in 10.0 mi WNW 11.5 mph - N/A   Clear
2:56 AM 57.0 °F 42.1 °F 57% 29.68 in 10.0 mi NW 13.8 mph 21.9 mph N/A   Clear
3:56 AM 55.0 °F 39.0 °F 55% 29.68 in 10.0 mi NNW 11.5 mph - N/A   Partly Cloudy
4:56 AM 53.1 °F 37.0 °F 55% 29.68 in 10.0 mi NW 11.5 mph 20.7 mph N/A   Clear
5:56 AM 52.0 °F 35.1 °F 53% 29.69 in 10.0 mi NW 10.4 mph 20.7 mph N/A   Clear
6:56 AM 50.0 °F 39.0 °F 66% 29.70 in 10.0 mi WNW 8.1 mph - N/A   Clear
7:56 AM 48.9 °F 39.0 °F 69% 29.72 in 10.0 mi WNW 12.7 mph - N/A   Clear
8:56 AM 50.0 °F 37.9 °F 63% 29.73 in 10.0 mi NW 15.0 mph 20.7 mph N/A   Partly Cloudy
9:56 AM 54.0 °F 37.0 °F 53% 29.72 in 10.0 mi WNW 12.7 mph - N/A   Partly Cloudy
10:56 AM 55.9 °F 36.0 °F 47% 29.71 in 10.0 mi WNW 17.3 mph 23.0 mph N/A   Partly Cloudy
11:56 AM 59.0 °F 36.0 °F 42% 29.69 in 10.0 mi NNW 16.1 mph 28.8 mph N/A   Partly Cloudy
12:56 PM 62.1 °F 36.0 °F 38% 29.67 in 10.0 mi NW 16.1 mph 25.3 mph N/A   Partly Cloudy
1:56 PM 63.0 °F 35.1 °F 35% 29.63 in 10.0 mi WNW 17.3 mph 25.3 mph N/A   Clear
2:56 PM 63.0 °F 34.0 °F 34% 29.61 in 10.0 mi WNW 16.1 mph 25.3 mph N/A   Scattered Clouds
3:56 PM 64.0 °F 34.0 °F 33% 29.59 in 10.0 mi NW 13.8 mph 25.3 mph N/A   Scattered Clouds
4:56 PM 64.0 °F 34.0 °F 33% 29.58 in 10.0 mi NW 17.3 mph 27.6 mph N/A   Scattered Clouds
5:56 PM 62.1 °F 35.1 °F 37% 29.58 in 10.0 mi NW 12.7 mph 24.2 mph N/A   Mostly Cloudy
6:56 PM 60.1 °F 35.1 °F 39% 29.59 in 10.0 mi WNW 13.8 mph 19.6 mph N/A   Overcast
7:56 PM 59.0 °F 33.1 °F 38% 29.61 in 10.0 mi WNW 12.7 mph 27.6 mph N/A   Overcast
8:56 PM 55.9 °F 33.1 °F 42% 29.64 in 10.0 mi WNW 17.3 mph 24.2 mph N/A   Clear
9:56 PM 54.0 °F 32.0 °F 43% 29.65 in 10.0 mi WNW 20.7 mph 34.5 mph N/A   Clear
10:56 PM 52.0 °F 30.9 °F 45% 29.67 in 10.0 mi WNW 18.4 mph 28.8 mph N/A   Clear
11:56 PM 50.0 °F 32.0 °F 50% 29.66 in 10.0 mi WNW 11.5 mph - N/A   Clear